User: anonymous
Location: Fort Wayne
(41.1310°N, 85.1290°W)
Time: 07:18:45
(UTC-04:00)
Language:

Cosmos 1000 Rocket - Orbit

View from above orbital plane
View from above orbital plane
View from above satellite
View from above satellite

Ground track
Ground track

The orbit data is extracted from the following two-line orbital elements,

1 10777U 78034B   14205.44451270  .00000077  00000-0  62476-4 0  3080
2 10777 082.9447 297.9963 0024735 283.2175 126.3027 13.77291332824645
Epoch (UTC): 24 July 2014 10:40:05
Eccentricity: 0.0024735
inclination: 82.9447°
perigee height: 955 km
apogee height: 991 km
right ascension of ascending node: 297.9963°
argument of perigee: 283.2175°
revolutions per day: 13.77291332
mean anomaly at epoch: 126.3027°
orbit number at epoch: 82464

The dashed part of the orbit path shows where the satellite is in the earth's shadow,  

DLR